Weather in Novonikolayevka

Russia / Republic of Khakassia     53°11′41″N   91°17′45″E
temp.,
°C
wind,
m/s
gust,
m/s
humid.,
%
clouds,
%
prec.,
mm/h
press.,
hPa
HPBL,
m
7 may, fri
fri701:00+13s1171100 0.0 100710
04:00+12s116992 0.0 100610
07:00+14se116491 0.0 100631
10:00+18e2248100 0.0 1005128
13:00+20s4945100 0.0 1006522
16:00+18wnw4956100 0.1 1006314
19:00+16wsw71369100 0.9 1009707
22:00+14wsw81466100 0.9 1013725
8 may, sat
sat801:00+12wsw61272100 1.1 1016352
04:00+10wsw6127581 0.0 1018358
07:00+11wsw612630 0.0 1018681
10:00+15wsw811415 0.0 10171981
13:00+18w911325 0.0 10162326
16:00+19w9113222 0.0 10152447
19:00+17wnw711375 0.0 1015974
22:00+12wsw48545 0.0 1017143
9 may, sun
sun901:00+12sw614545 0.0 1015401
04:00+12wsw715555 0.0 1015581
07:00+11wsw71562100 0.2 1015873
10:00+13wsw8135743 0.3 10141322
13:00+10nne666975 1.6 1016541
16:00+9ese4468100 0.1 1018682
19:00+9sse4367100 0.2 1019347
22:00+6ssw227662 0.0 102030
10 may, mon
mon1001:00+4e11775 0.0 102012
04:00+3e22875 0.0 102114
07:00+5ene24740 0.0 1021210
10:00+9ene45515 0.0 10191002
13:00+12e56415 0.0 10171396
16:00+14e6739100 0.0 10151393
19:00+13ene5846100 0.0 10141066
22:00+9ene41158100 0.0 1012307
11 may, tue
tue1101:00+8ene376362 0.0 1011240
04:00+5nne227434 0.0 101112
07:00+7nne1268100 0.0 1011195
10:00+11nne225259 0.0 1010807
13:00+15ne3241100 0.0 10091347
16:00+16nne3338100 0.0 10091570
19:00+15nnw224122 0.0 1010515
22:00+9wsw38735 0.0 1012149